Year,Month,Day,Hour,Minute,Value (Times are PST for temperature in C)
2010,07,15,00,00,12.80
2010,07,15,00,01,12.80
2010,07,15,00,02,12.80
2010,07,15,00,03,12.80
2010,07,15,00,04,12.80
2010,07,15,00,05,12.70
2010,07,15,00,06,12.70
2010,07,15,00,07,12.70
2010,07,15,00,08,12.70
2010,07,15,00,09,12.60
2010,07,15,00,10,12.60
2010,07,15,00,11,12.60
2010,07,15,00,12,12.60
2010,07,15,00,13,12.60
2010,07,15,00,14,12.50
2010,07,15,00,15,12.50
2010,07,15,00,16,12.50
2010,07,15,00,17,12.40
2010,07,15,00,18,12.40
2010,07,15,00,19,12.40
2010,07,15,00,20,12.40
2010,07,15,00,21,12.40
2010,07,15,00,22,12.40
2010,07,15,00,23,12.40
2010,07,15,00,24,12.40
2010,07,15,00,25,12.30
2010,07,15,00,26,12.30
2010,07,15,00,27,12.30
2010,07,15,00,28,12.30
2010,07,15,00,29,12.30
2010,07,15,00,30,12.30
2010,07,15,00,31,12.30
2010,07,15,00,32,12.30
2010,07,15,00,33,12.30
2010,07,15,00,34,12.30
2010,07,15,00,35,12.30
2010,07,15,00,36,12.30
2010,07,15,00,37,12.30
2010,07,15,00,38,12.20
2010,07,15,00,39,12.20
2010,07,15,00,40,12.20
2010,07,15,00,41,12.20
2010,07,15,00,42,12.20
2010,07,15,00,43,12.10
2010,07,15,00,44,12.10
2010,07,15,00,45,12.10
2010,07,15,00,46,12.10
2010,07,15,00,47,12.10
2010,07,15,00,48,12.10
2010,07,15,00,49,12.10
2010,07,15,00,50,12.00
2010,07,15,00,51,12.00
2010,07,15,00,52,12.00
2010,07,15,00,53,11.90
2010,07,15,00,54,11.90
2010,07,15,00,55,11.90
2010,07,15,00,56,11.90
2010,07,15,00,57,11.90
2010,07,15,00,58,11.90
2010,07,15,00,59,11.90
2010,07,15,01,00,11.90
2010,07,15,01,01,11.90
2010,07,15,01,02,11.90
2010,07,15,01,03,11.90
2010,07,15,01,04,11.90
2010,07,15,01,05,11.90
2010,07,15,01,06,11.90
2010,07,15,01,07,11.90
2010,07,15,01,08,11.90
2010,07,15,01,09,11.90
2010,07,15,01,10,11.90
2010,07,15,01,11,11.90
2010,07,15,01,12,11.90
2010,07,15,01,13,11.90
2010,07,15,01,14,11.90
2010,07,15,01,15,11.90
2010,07,15,01,16,11.90
2010,07,15,01,17,11.90
2010,07,15,01,18,11.90
2010,07,15,01,19,11.90
2010,07,15,01,20,11.90
2010,07,15,01,21,11.90
2010,07,15,01,22,11.90
2010,07,15,01,23,11.90
2010,07,15,01,24,11.90
2010,07,15,01,25,11.90
2010,07,15,01,26,11.90
2010,07,15,01,27,11.90
2010,07,15,01,28,11.90
2010,07,15,01,29,11.90
2010,07,15,01,30,11.90
2010,07,15,01,31,11.90
2010,07,15,01,32,11.90
2010,07,15,01,33,11.90
2010,07,15,01,34,11.90
2010,07,15,01,35,11.90
2010,07,15,01,36,11.90
2010,07,15,01,37,11.90
2010,07,15,01,38,11.90
2010,07,15,01,39,11.90
2010,07,15,01,40,11.90
2010,07,15,01,41,11.90
2010,07,15,01,42,11.90
2010,07,15,01,43,11.90
2010,07,15,01,44,11.90
2010,07,15,01,45,11.90
2010,07,15,01,46,11.90
2010,07,15,01,47,11.90
2010,07,15,01,48,11.90
2010,07,15,01,49,11.90
2010,07,15,01,50,11.90
2010,07,15,01,51,11.90
2010,07,15,01,52,11.90
2010,07,15,01,53,11.90
2010,07,15,01,54,11.90
2010,07,15,01,55,11.90
2010,07,15,01,56,11.90
2010,07,15,01,57,11.90
2010,07,15,01,58,11.90
2010,07,15,01,59,11.90
2010,07,15,02,00,11.80
2010,07,15,02,01,11.80
2010,07,15,02,02,11.80
2010,07,15,02,03,11.80
2010,07,15,02,04,11.80
2010,07,15,02,05,11.80
2010,07,15,02,06,11.80
2010,07,15,02,07,11.80
2010,07,15,02,08,11.80
2010,07,15,02,09,11.80
2010,07,15,02,10,11.80
2010,07,15,02,11,11.80
2010,07,15,02,12,11.80
2010,07,15,02,13,11.70
2010,07,15,02,14,11.70
2010,07,15,02,15,11.70
2010,07,15,02,16,11.70
2010,07,15,02,17,11.70
2010,07,15,02,18,11.70
2010,07,15,02,19,11.70
2010,07,15,02,20,11.70
2010,07,15,02,21,11.70
2010,07,15,02,22,11.70
2010,07,15,02,23,11.70
2010,07,15,02,24,11.70
2010,07,15,02,25,11.70
2010,07,15,02,26,11.70
2010,07,15,02,27,11.70
2010,07,15,02,28,11.70
2010,07,15,02,29,11.70
2010,07,15,02,30,11.70
2010,07,15,02,31,11.70
2010,07,15,02,32,11.60
2010,07,15,02,33,11.60
2010,07,15,02,34,11.60
2010,07,15,02,35,11.60
2010,07,15,02,36,11.60
2010,07,15,02,37,11.60
2010,07,15,02,38,11.60
2010,07,15,02,39,11.60
2010,07,15,02,40,11.60
2010,07,15,02,41,11.60
2010,07,15,02,42,11.60
2010,07,15,02,43,11.60
2010,07,15,02,44,11.60
2010,07,15,02,45,11.60
2010,07,15,02,46,11.60
2010,07,15,02,47,11.60
2010,07,15,02,48,11.60
2010,07,15,02,49,11.60
2010,07,15,02,50,11.60
2010,07,15,02,51,11.60
2010,07,15,02,52,11.60
2010,07,15,02,53,11.60
2010,07,15,02,54,11.60
2010,07,15,02,55,11.50
2010,07,15,02,56,11.50
2010,07,15,02,57,11.50
2010,07,15,02,58,11.50
2010,07,15,02,59,11.50
2010,07,15,03,00,11.50
2010,07,15,03,01,11.50
2010,07,15,03,02,11.50
2010,07,15,03,03,11.40
2010,07,15,03,04,11.40
2010,07,15,03,05,11.40
2010,07,15,03,06,11.40
2010,07,15,03,07,11.40
2010,07,15,03,08,11.40
2010,07,15,03,09,11.40
2010,07,15,03,10,11.40
2010,07,15,03,11,11.40
2010,07,15,03,12,11.40
2010,07,15,03,13,11.40
2010,07,15,03,14,11.40
2010,07,15,03,15,11.40
2010,07,15,03,16,11.40
2010,07,15,03,17,11.40
2010,07,15,03,18,11.30
2010,07,15,03,19,11.30
2010,07,15,03,20,11.30
2010,07,15,03,21,11.30
2010,07,15,03,22,11.30
2010,07,15,03,23,11.30
2010,07,15,03,24,11.30
2010,07,15,03,25,11.30
2010,07,15,03,26,11.30
2010,07,15,03,27,11.30
2010,07,15,03,28,11.30
2010,07,15,03,29,11.30
2010,07,15,03,30,11.30
2010,07,15,03,31,11.30
2010,07,15,03,32,11.30
2010,07,15,03,33,11.30
2010,07,15,03,34,11.30
2010,07,15,03,35,11.20
2010,07,15,03,36,11.20
2010,07,15,03,37,11.20
2010,07,15,03,38,11.20
2010,07,15,03,39,11.20
2010,07,15,03,40,11.20
2010,07,15,03,41,11.20
2010,07,15,03,42,11.20
2010,07,15,03,43,11.20
2010,07,15,03,44,11.20
2010,07,15,03,45,11.20
2010,07,15,03,46,11.20
2010,07,15,03,47,11.20
2010,07,15,03,48,11.20
2010,07,15,03,49,11.20
2010,07,15,03,50,11.20
2010,07,15,03,51,11.20
2010,07,15,03,52,11.20
2010,07,15,03,53,11.20
2010,07,15,03,54,11.20
2010,07,15,03,55,11.20
2010,07,15,03,56,11.20
2010,07,15,03,57,11.20
2010,07,15,03,58,11.20
2010,07,15,03,59,11.20
2010,07,15,04,00,11.20
2010,07,15,04,01,11.20
2010,07,15,04,02,11.20
2010,07,15,04,03,11.10
2010,07,15,04,04,11.10
2010,07,15,04,05,11.10
2010,07,15,04,06,11.10
2010,07,15,04,07,11.10
2010,07,15,04,08,11.10
2010,07,15,04,09,11.10
2010,07,15,04,10,11.10
2010,07,15,04,11,11.10
2010,07,15,04,12,11.00
2010,07,15,04,13,11.00
2010,07,15,04,14,11.00
2010,07,15,04,15,11.10
2010,07,15,04,16,11.00
2010,07,15,04,17,11.10
2010,07,15,04,18,11.00
2010,07,15,04,19,11.00
2010,07,15,04,20,11.00
2010,07,15,04,21,11.00
2010,07,15,04,22,11.00
2010,07,15,04,23,11.00
2010,07,15,04,24,11.00
2010,07,15,04,25,11.00
2010,07,15,04,26,11.00
2010,07,15,04,27,10.90
2010,07,15,04,28,10.90
2010,07,15,04,29,10.90
2010,07,15,04,30,10.90
2010,07,15,04,31,10.90
2010,07,15,04,32,10.90
2010,07,15,04,33,10.90
2010,07,15,04,34,10.80
2010,07,15,04,35,10.80
2010,07,15,04,36,10.80
2010,07,15,04,37,10.80
2010,07,15,04,38,10.80
2010,07,15,04,39,10.80
2010,07,15,04,40,10.80
2010,07,15,04,41,10.80
2010,07,15,04,42,10.80
2010,07,15,04,43,10.80
2010,07,15,04,44,10.80
2010,07,15,04,45,10.70
2010,07,15,04,46,10.70
2010,07,15,04,47,10.70
2010,07,15,04,48,10.70
2010,07,15,04,49,10.70
2010,07,15,04,50,10.70
2010,07,15,04,51,10.70
2010,07,15,04,52,10.70
2010,07,15,04,53,10.70
2010,07,15,04,54,10.70
2010,07,15,04,55,10.70
2010,07,15,04,56,10.70
2010,07,15,04,57,10.70
2010,07,15,04,58,10.70
2010,07,15,04,59,10.70
2010,07,15,05,00,10.70
2010,07,15,05,01,10.70
2010,07,15,05,02,10.70
2010,07,15,05,03,10.70
2010,07,15,05,04,10.70
2010,07,15,05,05,10.70
2010,07,15,05,06,10.70
2010,07,15,05,07,10.70
2010,07,15,05,08,10.70
2010,07,15,05,09,10.70
2010,07,15,05,10,10.60
2010,07,15,05,11,10.60
2010,07,15,05,12,10.60
2010,07,15,05,13,10.60
2010,07,15,05,14,10.60
2010,07,15,05,15,10.60
2010,07,15,05,16,10.60
2010,07,15,05,17,10.60
2010,07,15,05,18,10.50
2010,07,15,05,19,10.50
2010,07,15,05,20,10.50
2010,07,15,05,21,10.50
2010,07,15,05,22,10.50
2010,07,15,05,23,10.40
2010,07,15,05,24,10.40
2010,07,15,05,25,10.40
2010,07,15,05,26,10.40
2010,07,15,05,27,10.40
2010,07,15,05,28,10.40
2010,07,15,05,29,10.40
2010,07,15,05,30,10.40
2010,07,15,05,31,10.40
2010,07,15,05,32,10.40
2010,07,15,05,33,10.40
2010,07,15,05,34,10.40
2010,07,15,05,35,10.40
2010,07,15,05,36,10.40
2010,07,15,05,37,10.40
2010,07,15,05,38,10.40
2010,07,15,05,39,10.40
2010,07,15,05,40,10.40
2010,07,15,05,41,10.40
2010,07,15,05,42,10.40
2010,07,15,05,43,10.40
2010,07,15,05,44,10.50
2010,07,15,05,45,10.50
2010,07,15,05,46,10.50
2010,07,15,05,47,10.50
2010,07,15,05,48,10.50
2010,07,15,05,49,10.50
2010,07,15,05,50,10.60
2010,07,15,05,51,10.60
2010,07,15,05,52,10.60
2010,07,15,05,53,10.60
2010,07,15,05,54,10.70
2010,07,15,05,55,10.70
2010,07,15,05,56,10.70
2010,07,15,05,57,10.70
2010,07,15,05,58,10.70
2010,07,15,05,59,10.70
2010,07,15,06,00,10.70
2010,07,15,06,01,10.70
2010,07,15,06,02,10.70
2010,07,15,06,03,10.70
2010,07,15,06,04,10.80
2010,07,15,06,05,10.80
2010,07,15,06,06,10.80
2010,07,15,06,07,10.80
2010,07,15,06,08,10.90
2010,07,15,06,09,10.90
2010,07,15,06,10,11.00
2010,07,15,06,11,11.00
2010,07,15,06,12,11.10
2010,07,15,06,13,11.10
2010,07,15,06,14,11.20
2010,07,15,06,15,11.20
2010,07,15,06,16,11.20
2010,07,15,06,17,11.30
2010,07,15,06,18,11.30
2010,07,15,06,19,11.40
2010,07,15,06,20,11.40
2010,07,15,06,21,11.40
2010,07,15,06,22,11.50
2010,07,15,06,23,11.50
2010,07,15,06,24,11.60
2010,07,15,06,25,11.60
2010,07,15,06,26,11.60
2010,07,15,06,27,11.70
2010,07,15,06,28,11.70
2010,07,15,06,29,11.70
2010,07,15,06,30,11.80
2010,07,15,06,31,11.80
2010,07,15,06,32,11.90
2010,07,15,06,33,11.90
2010,07,15,06,34,12.00
2010,07,15,06,35,12.00
2010,07,15,06,36,12.10
2010,07,15,06,37,12.10
2010,07,15,06,38,12.20
2010,07,15,06,39,12.20
2010,07,15,06,40,12.20
2010,07,15,06,41,12.30
2010,07,15,06,42,12.30
2010,07,15,06,43,12.40
2010,07,15,06,44,12.40
2010,07,15,06,45,12.50
2010,07,15,06,46,12.60
2010,07,15,06,47,12.60
2010,07,15,06,48,12.70
2010,07,15,06,49,12.70
2010,07,15,06,50,12.80
2010,07,15,06,51,12.80
2010,07,15,06,52,12.90
2010,07,15,06,53,12.90
2010,07,15,06,54,13.00
2010,07,15,06,55,13.10
2010,07,15,06,56,13.10
2010,07,15,06,57,13.20
2010,07,15,06,58,13.30
2010,07,15,06,59,13.40
2010,07,15,07,00,13.40
2010,07,15,07,01,13.50
2010,07,15,07,02,13.60
2010,07,15,07,03,13.70
2010,07,15,07,04,13.70
2010,07,15,07,05,13.80
2010,07,15,07,06,13.80
2010,07,15,07,07,13.90
2010,07,15,07,08,14.00
2010,07,15,07,09,14.00
2010,07,15,07,10,14.00
2010,07,15,07,11,14.00
2010,07,15,07,12,14.10
2010,07,15,07,13,14.10
2010,07,15,07,14,14.00
2010,07,15,07,15,14.00
2010,07,15,07,16,14.00
2010,07,15,07,17,14.10
2010,07,15,07,18,14.10
2010,07,15,07,19,14.10
2010,07,15,07,20,14.10
2010,07,15,07,21,14.10
2010,07,15,07,22,14.10
2010,07,15,07,23,14.20
2010,07,15,07,24,14.20
2010,07,15,07,25,14.20
2010,07,15,07,26,14.20
2010,07,15,07,27,14.30
2010,07,15,07,28,14.30
2010,07,15,07,29,14.30
2010,07,15,07,30,14.40
2010,07,15,07,31,14.40
2010,07,15,07,32,14.50
2010,07,15,07,33,14.50
2010,07,15,07,34,14.50
2010,07,15,07,35,14.50
2010,07,15,07,36,14.50
2010,07,15,07,37,14.50
2010,07,15,07,38,14.50
2010,07,15,07,39,14.50
2010,07,15,07,40,14.50
2010,07,15,07,41,14.50
2010,07,15,07,42,14.40
2010,07,15,07,43,14.40
2010,07,15,07,44,14.40
2010,07,15,07,45,14.40
2010,07,15,07,46,14.50
2010,07,15,07,47,14.50
2010,07,15,07,48,14.50
2010,07,15,07,49,14.50
2010,07,15,07,50,14.50
2010,07,15,07,51,14.60
2010,07,15,07,52,14.60
2010,07,15,07,53,14.60
2010,07,15,07,54,14.60
2010,07,15,07,55,14.70
2010,07,15,07,56,14.70
2010,07,15,07,57,14.70
2010,07,15,07,58,14.80
2010,07,15,07,59,14.90
2010,07,15,08,00,14.90
2010,07,15,08,01,14.90
2010,07,15,08,02,14.70
2010,07,15,08,03,14.60
2010,07,15,08,04,14.60
2010,07,15,08,05,14.50
2010,07,15,08,06,14.50
2010,07,15,08,07,14.40
2010,07,15,08,08,14.40
2010,07,15,08,09,14.40
2010,07,15,08,10,14.50
2010,07,15,08,11,14.60
2010,07,15,08,12,14.70
2010,07,15,08,13,14.80
2010,07,15,08,14,14.80
2010,07,15,08,15,14.80
2010,07,15,08,16,14.80
2010,07,15,08,17,14.90
2010,07,15,08,18,15.00
2010,07,15,08,19,15.00
2010,07,15,08,20,15.00
2010,07,15,08,21,15.00
2010,07,15,08,22,15.00
2010,07,15,08,23,15.10
2010,07,15,08,24,15.20
2010,07,15,08,25,15.20
2010,07,15,08,26,15.20
2010,07,15,08,27,15.20
2010,07,15,08,28,15.30
2010,07,15,08,29,15.30
2010,07,15,08,30,15.30
2010,07,15,08,31,15.40
2010,07,15,08,32,15.40
2010,07,15,08,33,15.50
2010,07,15,08,34,15.60
2010,07,15,08,35,15.70
2010,07,15,08,36,15.70
2010,07,15,08,37,15.70
2010,07,15,08,38,15.80
2010,07,15,08,39,15.80
2010,07,15,08,40,15.80
2010,07,15,08,41,15.80
2010,07,15,08,42,15.80
2010,07,15,08,43,15.80
2010,07,15,08,44,15.90
2010,07,15,08,45,16.00
2010,07,15,08,46,16.00
2010,07,15,08,47,16.10
2010,07,15,08,48,16.10
2010,07,15,08,49,16.10
2010,07,15,08,50,16.10
2010,07,15,08,51,16.10
2010,07,15,08,52,16.20
2010,07,15,08,53,16.20
2010,07,15,08,54,16.30
2010,07,15,08,55,16.40
2010,07,15,08,56,16.40
2010,07,15,08,57,16.50
2010,07,15,08,58,16.50
2010,07,15,08,59,16.50
2010,07,15,09,00,16.50
2010,07,15,09,01,16.50
2010,07,15,09,02,16.60
2010,07,15,09,03,16.60
2010,07,15,09,04,16.60
2010,07,15,09,05,16.60
2010,07,15,09,06,16.70
2010,07,15,09,07,16.70
2010,07,15,09,08,16.70
2010,07,15,09,09,16.70
2010,07,15,09,10,16.80
2010,07,15,09,11,16.80
2010,07,15,09,12,16.80
2010,07,15,09,13,16.80
2010,07,15,09,14,16.80
2010,07,15,09,15,16.80
2010,07,15,09,16,16.80
2010,07,15,09,17,16.80
2010,07,15,09,18,16.80
2010,07,15,09,19,16.80
2010,07,15,09,20,16.90
2010,07,15,09,21,16.90
2010,07,15,09,22,16.90
2010,07,15,09,23,16.90
2010,07,15,09,24,16.80
2010,07,15,09,25,16.80
2010,07,15,09,26,16.80
2010,07,15,09,27,16.80
2010,07,15,09,28,16.80
2010,07,15,09,29,16.70
2010,07,15,09,30,16.70
2010,07,15,09,31,16.70
2010,07,15,09,32,16.60
2010,07,15,09,33,16.60
2010,07,15,09,34,16.50
2010,07,15,09,35,16.50
2010,07,15,09,36,16.50
2010,07,15,09,37,16.40
2010,07,15,09,38,16.40
2010,07,15,09,39,16.40
2010,07,15,09,40,16.30
2010,07,15,09,41,16.40
2010,07,15,09,42,16.50
2010,07,15,09,43,16.50
2010,07,15,09,44,16.50
2010,07,15,09,45,16.40
2010,07,15,09,46,16.40
2010,07,15,09,47,16.40
2010,07,15,09,48,16.50
2010,07,15,09,49,16.50
2010,07,15,09,50,16.60
2010,07,15,09,51,16.60
2010,07,15,09,52,16.70
2010,07,15,09,53,16.80
2010,07,15,09,54,16.80
2010,07,15,09,55,16.80
2010,07,15,09,56,16.90
2010,07,15,09,57,16.90
2010,07,15,09,58,17.00
2010,07,15,09,59,17.00
2010,07,15,10,00,17.10
2010,07,15,10,01,17.10
2010,07,15,10,02,17.20
2010,07,15,10,03,17.20
2010,07,15,10,04,17.10
2010,07,15,10,05,17.10
2010,07,15,10,06,17.10
2010,07,15,10,07,17.10
2010,07,15,10,08,17.10
2010,07,15,10,09,17.10
2010,07,15,10,10,17.10
2010,07,15,10,11,17.10
2010,07,15,10,12,17.20
2010,07,15,10,13,17.20
2010,07,15,10,14,17.20
2010,07,15,10,15,17.30
2010,07,15,10,16,17.40
2010,07,15,10,17,17.40
2010,07,15,10,18,17.40
2010,07,15,10,19,17.50
2010,07,15,10,20,17.60
2010,07,15,10,21,17.60
2010,07,15,10,22,17.70
2010,07,15,10,23,17.80
2010,07,15,10,24,17.80
2010,07,15,10,25,17.90
2010,07,15,10,26,17.90
2010,07,15,10,27,18.00
2010,07,15,10,28,18.10
2010,07,15,10,29,18.20
2010,07,15,10,30,18.30
2010,07,15,10,31,18.40
2010,07,15,10,32,18.50
2010,07,15,10,33,18.50
2010,07,15,10,34,18.50
2010,07,15,10,35,18.60
2010,07,15,10,36,18.60
2010,07,15,10,37,18.60
2010,07,15,10,38,18.60
2010,07,15,10,39,18.60
2010,07,15,10,40,18.60
2010,07,15,10,41,18.70
2010,07,15,10,42,18.80
2010,07,15,10,43,18.90
2010,07,15,10,44,19.10
2010,07,15,10,45,19.20
2010,07,15,10,46,19.20
2010,07,15,10,47,19.20
2010,07,15,10,48,19.20
2010,07,15,10,49,19.10
2010,07,15,10,50,19.20
2010,07,15,10,51,19.20
2010,07,15,10,52,19.20
2010,07,15,10,53,19.20
2010,07,15,10,54,19.10
2010,07,15,10,55,19.10
2010,07,15,10,56,19.20
2010,07,15,10,57,19.30
2010,07,15,10,58,19.30
2010,07,15,10,59,19.20
2010,07,15,11,00,19.20
2010,07,15,11,01,19.10
2010,07,15,11,02,19.10
2010,07,15,11,03,19.00
2010,07,15,11,04,19.00
2010,07,15,11,05,19.00
2010,07,15,11,06,19.10
2010,07,15,11,07,19.10
2010,07,15,11,08,19.10
2010,07,15,11,09,19.10
2010,07,15,11,10,19.10
2010,07,15,11,11,19.10
2010,07,15,11,12,19.20
2010,07,15,11,13,19.20
2010,07,15,11,14,19.10
2010,07,15,11,15,19.10
2010,07,15,11,16,19.20
2010,07,15,11,17,19.20
2010,07,15,11,18,19.30
2010,07,15,11,19,19.30
2010,07,15,11,20,19.30
2010,07,15,11,21,19.30
2010,07,15,11,22,19.30
2010,07,15,11,23,19.30
2010,07,15,11,24,19.20
2010,07,15,11,25,19.30
2010,07,15,11,26,19.30
2010,07,15,11,27,19.30
2010,07,15,11,28,19.30
2010,07,15,11,29,19.30
2010,07,15,11,30,19.30
2010,07,15,11,31,19.30
2010,07,15,11,32,19.40
2010,07,15,11,33,19.40
2010,07,15,11,34,19.50
2010,07,15,11,35,19.60
2010,07,15,11,36,19.60
2010,07,15,11,37,19.70
2010,07,15,11,38,19.70
2010,07,15,11,39,19.70
2010,07,15,11,40,19.60
2010,07,15,11,41,19.60
2010,07,15,11,42,19.60
2010,07,15,11,43,19.60
2010,07,15,11,44,19.60
2010,07,15,11,45,19.60
2010,07,15,11,46,19.70
2010,07,15,11,47,19.80
2010,07,15,11,48,19.70
2010,07,15,11,49,19.70
2010,07,15,11,50,19.70
2010,07,15,11,51,19.70
2010,07,15,11,52,19.70
2010,07,15,11,53,19.70
2010,07,15,11,54,19.70
2010,07,15,11,55,19.70
2010,07,15,11,56,19.80
2010,07,15,11,57,19.80
2010,07,15,11,58,19.90
2010,07,15,11,59,19.90
2010,07,15,12,00,20.10
2010,07,15,12,01,20.20
2010,07,15,12,02,20.20
2010,07,15,12,03,20.20
2010,07,15,12,04,20.20
2010,07,15,12,05,20.10
2010,07,15,12,06,20.00
2010,07,15,12,07,19.90
2010,07,15,12,08,19.70
2010,07,15,12,09,19.70
2010,07,15,12,10,19.70
2010,07,15,12,11,19.70
2010,07,15,12,12,19.70
2010,07,15,12,13,19.60
2010,07,15,12,14,19.60
2010,07,15,12,15,19.60
2010,07,15,12,16,19.60
2010,07,15,12,17,19.70
2010,07,15,12,18,19.70
2010,07,15,12,19,19.70
2010,07,15,12,20,19.70
2010,07,15,12,21,19.70
2010,07,15,12,22,19.70
2010,07,15,12,23,19.60
2010,07,15,12,24,19.70
2010,07,15,12,25,19.70
2010,07,15,12,26,19.80
2010,07,15,12,27,19.80
2010,07,15,12,28,19.90
2010,07,15,12,29,19.90
2010,07,15,12,30,20.00
2010,07,15,12,31,20.00
2010,07,15,12,32,20.00
2010,07,15,12,33,19.90
2010,07,15,12,34,19.90
2010,07,15,12,35,19.90
2010,07,15,12,36,19.90
2010,07,15,12,37,19.80
2010,07,15,12,38,19.80
2010,07,15,12,39,19.80
2010,07,15,12,40,19.80
2010,07,15,12,41,19.70
2010,07,15,12,42,19.60
2010,07,15,12,43,19.60
2010,07,15,12,44,19.70
2010,07,15,12,45,19.70
2010,07,15,12,46,19.60
2010,07,15,12,47,19.70
2010,07,15,12,48,19.70
2010,07,15,12,49,19.80
2010,07,15,12,50,20.00
2010,07,15,12,51,20.10
2010,07,15,12,52,20.10
2010,07,15,12,53,20.20
2010,07,15,12,54,20.30
2010,07,15,12,55,20.30
2010,07,15,12,56,20.20
2010,07,15,12,57,20.10
2010,07,15,12,58,20.00
2010,07,15,12,59,20.00
2010,07,15,13,00,20.00
2010,07,15,13,01,20.00
2010,07,15,13,02,20.00
2010,07,15,13,03,20.10
2010,07,15,13,04,20.20
2010,07,15,13,05,20.30
2010,07,15,13,06,20.30
2010,07,15,13,07,20.20
2010,07,15,13,08,20.20
2010,07,15,13,09,20.10
2010,07,15,13,10,20.10
2010,07,15,13,11,20.20
2010,07,15,13,12,20.20
2010,07,15,13,13,20.30
2010,07,15,13,14,20.40
2010,07,15,13,15,20.60
2010,07,15,13,16,20.70
2010,07,15,13,17,20.80
2010,07,15,13,18,20.90
2010,07,15,13,19,21.10
2010,07,15,13,20,21.20
2010,07,15,13,21,21.30
2010,07,15,13,22,21.40
2010,07,15,13,23,21.40
2010,07,15,13,24,21.40
2010,07,15,13,25,21.30
2010,07,15,13,26,21.10
2010,07,15,13,27,21.10
2010,07,15,13,28,21.10
2010,07,15,13,29,21.10
2010,07,15,13,30,21.10
2010,07,15,13,31,21.10
2010,07,15,13,32,21.00
2010,07,15,13,33,21.00
2010,07,15,13,34,21.00
2010,07,15,13,35,20.90
2010,07,15,13,36,20.80
2010,07,15,13,37,20.80
2010,07,15,13,38,20.80
2010,07,15,13,39,20.70
2010,07,15,13,40,20.70
2010,07,15,13,41,20.70
2010,07,15,13,42,20.80
2010,07,15,13,43,20.80
2010,07,15,13,44,20.80
2010,07,15,13,45,20.70
2010,07,15,13,46,20.60
2010,07,15,13,47,20.60
2010,07,15,13,48,20.60
2010,07,15,13,49,20.60
2010,07,15,13,50,20.70
2010,07,15,13,51,20.70
2010,07,15,13,52,20.50
2010,07,15,13,53,20.40
2010,07,15,13,54,20.50
2010,07,15,13,55,20.60
2010,07,15,13,56,20.70
2010,07,15,13,57,20.70
2010,07,15,13,58,20.80
2010,07,15,13,59,20.80
2010,07,15,14,00,20.90
2010,07,15,14,01,20.90
2010,07,15,14,02,21.00
2010,07,15,14,03,21.00
2010,07,15,14,04,21.00
2010,07,15,14,05,21.00
2010,07,15,14,06,21.00
2010,07,15,14,07,20.90
2010,07,15,14,08,20.80
2010,07,15,14,09,20.70
2010,07,15,14,10,20.70
2010,07,15,14,11,20.70
2010,07,15,14,12,20.70
2010,07,15,14,13,20.70
2010,07,15,14,14,20.80
2010,07,15,14,15,20.80
2010,07,15,14,16,20.90
2010,07,15,14,17,20.90
2010,07,15,14,18,21.00
2010,07,15,14,19,20.90
2010,07,15,14,20,20.70
2010,07,15,14,21,20.40
2010,07,15,14,22,20.20
2010,07,15,14,23,20.00
2010,07,15,14,24,19.90
2010,07,15,14,25,19.70
2010,07,15,14,26,19.50
2010,07,15,14,27,19.40
2010,07,15,14,28,19.40
2010,07,15,14,29,19.40
2010,07,15,14,30,19.50
2010,07,15,14,31,19.60
2010,07,15,14,32,19.80
2010,07,15,14,33,19.80
2010,07,15,14,34,19.90
2010,07,15,14,35,19.80
2010,07,15,14,36,19.80
2010,07,15,14,37,19.90
2010,07,15,14,38,20.00
2010,07,15,14,39,20.10
2010,07,15,14,40,20.30
2010,07,15,14,41,20.50
2010,07,15,14,42,20.60
2010,07,15,14,43,20.70
2010,07,15,14,44,20.80
2010,07,15,14,45,20.80
2010,07,15,14,46,20.90
2010,07,15,14,47,20.80
2010,07,15,14,48,20.80
2010,07,15,14,49,20.70
2010,07,15,14,50,20.60
2010,07,15,14,51,20.60
2010,07,15,14,52,20.40
2010,07,15,14,53,20.20
2010,07,15,14,54,20.10
2010,07,15,14,55,19.90
2010,07,15,14,56,19.70
2010,07,15,14,57,19.50
2010,07,15,14,58,19.40
2010,07,15,14,59,19.30
2010,07,15,15,00,19.20
2010,07,15,15,01,19.20
2010,07,15,15,02,19.20
2010,07,15,15,03,19.10
2010,07,15,15,04,19.00
2010,07,15,15,05,18.90
2010,07,15,15,06,18.80
2010,07,15,15,07,18.70
2010,07,15,15,08,18.60
2010,07,15,15,09,18.60
2010,07,15,15,10,18.50
2010,07,15,15,11,18.50
2010,07,15,15,12,18.50
2010,07,15,15,13,18.60
2010,07,15,15,14,18.80
2010,07,15,15,15,18.80
2010,07,15,15,16,18.80
2010,07,15,15,17,18.80
2010,07,15,15,18,18.70
2010,07,15,15,19,18.50
2010,07,15,15,20,18.30
2010,07,15,15,21,18.20
2010,07,15,15,22,18.10
2010,07,15,15,23,18.00
2010,07,15,15,24,17.90
2010,07,15,15,25,17.90
2010,07,15,15,26,17.80
2010,07,15,15,27,17.70
2010,07,15,15,28,17.70
2010,07,15,15,29,17.70
2010,07,15,15,30,17.70
2010,07,15,15,31,17.70
2010,07,15,15,32,17.60
2010,07,15,15,33,17.50
2010,07,15,15,34,17.40
2010,07,15,15,35,17.40
2010,07,15,15,36,17.40
2010,07,15,15,37,17.40
2010,07,15,15,38,17.40
2010,07,15,15,39,17.30
2010,07,15,15,40,17.30
2010,07,15,15,41,17.30
2010,07,15,15,42,17.30
2010,07,15,15,43,17.30
2010,07,15,15,44,17.40
2010,07,15,15,45,17.50
2010,07,15,15,46,17.50
2010,07,15,15,47,17.40
2010,07,15,15,48,17.40
2010,07,15,15,49,17.50
2010,07,15,15,50,17.50
2010,07,15,15,51,17.60
2010,07,15,15,52,17.70
2010,07,15,15,53,17.80
2010,07,15,15,54,17.80
2010,07,15,15,55,17.90
2010,07,15,15,56,17.90
2010,07,15,15,57,18.00
2010,07,15,15,58,18.10
2010,07,15,15,59,18.20
2010,07,15,16,00,18.30
2010,07,15,16,01,18.30
2010,07,15,16,02,18.40
2010,07,15,16,03,18.50
2010,07,15,16,04,18.60
2010,07,15,16,05,18.70
2010,07,15,16,06,18.80
2010,07,15,16,07,18.90
2010,07,15,16,08,18.80
2010,07,15,16,09,18.70
2010,07,15,16,10,18.50
2010,07,15,16,11,18.50
2010,07,15,16,12,18.50
2010,07,15,16,13,18.40
2010,07,15,16,14,18.50
2010,07,15,16,15,18.60
2010,07,15,16,16,18.50
2010,07,15,16,17,18.50
2010,07,15,16,18,18.40
2010,07,15,16,19,18.40
2010,07,15,16,20,18.30
2010,07,15,16,21,18.30
2010,07,15,16,22,18.30
2010,07,15,16,23,18.30
2010,07,15,16,24,18.30
2010,07,15,16,25,18.20
2010,07,15,16,26,18.10
2010,07,15,16,27,18.00
2010,07,15,16,28,17.80
2010,07,15,16,29,17.80
2010,07,15,16,30,17.70
2010,07,15,16,31,17.70
2010,07,15,16,32,17.70
2010,07,15,16,33,17.70
2010,07,15,16,34,17.80
2010,07,15,16,35,17.80
2010,07,15,16,36,17.80
2010,07,15,16,37,18.00
2010,07,15,16,38,18.10
2010,07,15,16,39,18.20
2010,07,15,16,40,18.40
2010,07,15,16,41,18.60
2010,07,15,16,42,18.60
2010,07,15,16,43,18.70
2010,07,15,16,44,18.70
2010,07,15,16,45,18.70
2010,07,15,16,46,18.80
2010,07,15,16,47,18.90
2010,07,15,16,48,18.90
2010,07,15,16,49,18.90
2010,07,15,16,50,18.80
2010,07,15,16,51,18.70
2010,07,15,16,52,18.60
2010,07,15,16,53,18.50
2010,07,15,16,54,18.40
2010,07,15,16,55,18.50
2010,07,15,16,56,18.60
2010,07,15,16,57,18.70
2010,07,15,16,58,18.80
2010,07,15,16,59,18.70
2010,07,15,17,00,18.70
2010,07,15,17,01,18.80
2010,07,15,17,02,18.80
2010,07,15,17,03,18.90
2010,07,15,17,04,19.00
2010,07,15,17,05,19.00
2010,07,15,17,06,19.00
2010,07,15,17,07,19.10
2010,07,15,17,08,19.10
2010,07,15,17,09,19.00
2010,07,15,17,10,18.90
2010,07,15,17,11,18.80
2010,07,15,17,12,18.70
2010,07,15,17,13,18.60
2010,07,15,17,14,18.60
2010,07,15,17,15,18.50
2010,07,15,17,16,18.50
2010,07,15,17,17,18.50
2010,07,15,17,18,18.60
2010,07,15,17,19,18.70